Terminal Aerodrome Forecast
Issued by NWS

Home | Current Version | Previous Version | Text Only | Print | Product List | Glossary On
Versions: 1 2 3 4 5 6 7 8 9 10 11 12 13 14 15 16 17 18 19 20 21 22 23 24 25 26 27
000
FTUS41 KBUF 251426 AAA
TAFJHW
TAF AMD
KJHW 251426Z 2514/2612 20008KT P6SM BKN007 BKN015 OVC040
     FM251500 23008KT P6SM SCT010 BKN025 OVC040
     FM251700 26010KT P6SM BKN040
     FM252100 27012KT P6SM VCSH BKN035
     FM260000 25006KT 6SM -SHRA VCTS OVC035CB
     FM260400 26005KT P6SM BKN040
     FM260700 27005KT 2SM BR BKN005
      AMD LTD TO CLD VIS AND WIND=

USA.gov is the U.S. government's official web portal to all federal, state and local government web resources and services.